Location: Unspecified
(0.0000°N, 0.0000°E)
Time: 18:14:05
(UTC+00:00)

STARLINK 1050 - Pass Details

Date: 18 January 2020
Orbit: 548 x 551 km, 53.0° (Epoch: 17 January)

Event Time Altitude Azimuth Distance (km) Brightness Sun altitude
Rises 18:29:23 0° 314° (NW) 2,700 7.5 -4.5°
Reaches altitude 10° 18:31:41 10° 307° (NW) 1,810 6.7 -5.0°
Maximum altitude 18:35:35 42° 236° (SW) 789 5.1 -5.9°
Drops below altitude 10° 18:39:30 10° 165° (SSE) 1,818 6.3 -6.8°
Sets 18:41:49 0° 157° (SSE) 2,714 7.1 -7.4°
